Cutler
DateTemperatureDew Point
09/04 - 08:15 PM70.8°56.7°
09/04 - 08:00 PM71.0°56.6°
09/04 - 07:45 PM71.8°58.3°
09/04 - 07:30 PM73.7°58.8°
09/04 - 07:15 PM76.0°58.9°
09/04 - 07:00 PM78.1°58.5°
09/04 - 06:45 PM79.7°56.7°
09/04 - 06:30 PM80.7°56.1°
09/04 - 06:15 PM81.7°56.9°
09/04 - 06:00 PM82.6°57.1°
09/04 - 05:45 PM83.7°57.9°
09/04 - 05:30 PM84.6°58.8°
09/04 - 05:15 PM85.1°59.2°
09/04 - 05:00 PM85.5°59.1°
09/04 - 04:45 PM85.9°59.5°
09/04 - 04:30 PM86.1°59.9°
09/04 - 04:15 PM86.5°60.1°
09/04 - 04:00 PM86.6°60.5°
09/04 - 03:45 PM86.8°60.6°
09/04 - 03:30 PM86.6°60.5°
09/04 - 03:15 PM86.0°60.7°
09/04 - 03:00 PM85.5°60.2°
09/04 - 02:45 PM85.2°60.8°
09/04 - 02:30 PM84.9°61.0°
09/04 - 02:15 PM84.3°61.1°
09/04 - 02:00 PM83.8°61.1°
09/04 - 01:45 PM83.1°61.4°
09/04 - 01:30 PM82.2°61.0°
09/04 - 01:15 PM81.7°61.4°
09/04 - 01:00 PM80.5°61.8°
09/04 - 12:45 PM79.8°61.8°
09/04 - 12:30 PM78.7°61.2°
09/04 - 12:15 PM77.6°61.6°
09/04 - 12:00 PM78.2°61.8°
09/04 - 11:45 AM77.9°61.4°
09/04 - 11:30 AM76.6°61.1°
09/04 - 11:15 AM76.3°60.9°
09/04 - 11:00 AM75.8°60.9°
09/04 - 10:45 AM74.2°60.2°
09/04 - 10:30 AM73.2°61.6°
09/04 - 10:15 AM71.9°61.0°
09/04 - 10:00 AM71.1°61.3°
09/04 - 09:45 AM70.2°61.1°
09/04 - 09:30 AM69.5°61.2°
09/04 - 09:15 AM68.5°60.8°
09/04 - 09:00 AM67.4°60.6°
09/04 - 08:45 AM65.6°60.2°
09/04 - 08:30 AM64.1°60.2°
09/04 - 08:15 AM61.9°60.6°
09/04 - 08:00 AM60.5°59.7°
09/04 - 07:45 AM58.5°57.6°
09/04 - 07:30 AM57.2°56.1°
09/04 - 07:15 AM55.5°54.0°
09/04 - 07:00 AM54.6°52.6°
09/04 - 06:45 AM54.5°52.5°
09/04 - 06:30 AM54.6°52.5°
09/04 - 06:15 AM54.7°52.4°
09/04 - 06:00 AM54.9°52.6°
09/04 - 05:45 AM55.1°52.9°
09/04 - 05:30 AM55.2°53.2°
09/04 - 05:15 AM55.6°53.7°
09/04 - 05:00 AM55.5°53.4°
09/04 - 04:45 AM55.3°52.8°
09/04 - 04:30 AM55.8°53.2°
09/04 - 04:15 AM56.0°53.6°
09/04 - 04:00 AM56.2°53.7°
09/04 - 03:45 AM55.8°53.1°
09/04 - 03:30 AM56.3°53.4°
09/04 - 03:15 AM56.9°53.5°
09/04 - 03:00 AM57.3°53.8°
09/04 - 02:45 AM57.9°54.3°
09/04 - 02:30 AM58.4°54.4°
09/04 - 02:15 AM59.1°54.8°
09/04 - 02:00 AM59.9°55.4°
09/04 - 01:45 AM60.7°55.9°
09/04 - 01:30 AM61.7°56.4°
09/04 - 01:15 AM62.0°56.3°
09/04 - 01:00 AM63.1°56.3°
09/04 - 12:45 AM63.9°56.2°
09/04 - 12:30 AM63.6°55.8°
09/04 - 12:15 AM62.2°55.0°
09/04 - 12:00 AM61.6°54.6°
09/03 - 11:45 PM61.5°54.3°
09/03 - 11:30 PM60.7°54.1°
09/03 - 11:15 PM60.5°55.0°
09/03 - 11:00 PM60.5°55.9°
09/03 - 10:45 PM60.8°55.9°
09/03 - 10:30 PM61.2°56.6°
09/03 - 10:15 PM61.8°56.9°
09/03 - 10:00 PM62.1°57.2°
09/03 - 09:45 PM62.5°57.3°
09/03 - 09:30 PM62.7°57.3°
09/03 - 09:15 PM63.4°57.4°
09/03 - 09:00 PM63.9°57.8°
09/03 - 08:45 PM64.7°58.0°
09/03 - 08:30 PM65.6°57.9°
09/03 - 08:15 PM66.6°57.9°
09/03 - 08:00 PM67.8°57.9°
09/03 - 07:45 PM69.2°58.1°
09/03 - 07:30 PM71.2°59.2°
09/03 - 07:15 PM73.7°60.6°
09/03 - 07:00 PM76.1°61.6°
09/03 - 06:45 PM78.5°61.5°
09/03 - 06:30 PM80.5°59.9°
09/03 - 06:15 PM82.1°58.4°
09/03 - 06:00 PM83.1°55.7°
09/03 - 05:45 PM84.5°56.4°
09/03 - 05:30 PM85.5°56.1°
09/03 - 05:15 PM86.1°55.5°
09/03 - 05:00 PM86.6°56.2°
09/03 - 04:45 PM86.9°56.0°
09/03 - 04:30 PM87.1°56.6°
09/03 - 04:15 PM86.7°56.9°
09/03 - 04:00 PM86.8°56.2°
09/03 - 03:45 PM87.3°55.8°
09/03 - 03:30 PM87.1°56.5°
09/03 - 03:15 PM86.8°56.9°
09/03 - 03:00 PM86.3°57.2°
09/03 - 02:45 PM85.6°57.1°
09/03 - 02:30 PM84.9°57.3°
09/03 - 02:15 PM83.9°57.3°
09/03 - 02:00 PM83.5°57.2°
09/03 - 01:45 PM83.2°58.1°
09/03 - 01:30 PM82.5°58.3°
09/03 - 01:15 PM81.7°57.5°
09/03 - 01:00 PM80.9°58.5°
09/03 - 12:45 PM80.2°58.6°
09/03 - 12:30 PM78.8°58.1°
09/03 - 12:15 PM78.4°58.2°
09/03 - 12:00 PM78.5°58.6°
09/03 - 11:45 AM77.4°59.0°
09/03 - 11:30 AM76.4°59.2°
09/03 - 11:15 AM76.0°58.8°
09/03 - 11:00 AM75.1°58.9°
09/03 - 10:45 AM73.5°58.4°
09/03 - 10:30 AM72.4°58.1°
09/03 - 10:15 AM71.5°58.8°
09/03 - 10:00 AM70.3°58.0°
09/03 - 09:45 AM69.6°57.8°
09/03 - 09:30 AM68.7°57.8°
09/03 - 09:15 AM67.2°57.5°
09/03 - 09:00 AM65.7°56.9°
09/03 - 08:45 AM63.7°56.8°
09/03 - 08:30 AM61.0°56.5°
09/03 - 08:15 AM58.7°56.6°
09/03 - 08:00 AM57.5°56.6°
09/03 - 07:45 AM55.7°54.7°
09/03 - 07:30 AM54.4°53.3°
09/03 - 07:15 AM53.2°51.8°
09/03 - 07:00 AM51.9°50.0°
09/03 - 06:45 AM51.3°49.3°
09/03 - 06:30 AM51.7°49.6°
09/03 - 06:15 AM51.6°49.3°
09/03 - 06:00 AM52.1°49.7°
09/03 - 05:45 AM52.3°50.0°
09/03 - 05:30 AM52.5°50.2°
09/03 - 05:15 AM52.8°50.4°
09/03 - 05:00 AM53.1°50.9°
09/03 - 04:45 AM53.4°51.2°
09/03 - 04:30 AM53.7°51.5°
09/03 - 04:15 AM53.8°51.6°
09/03 - 04:00 AM54.1°51.8°
09/03 - 03:45 AM54.3°52.1°
09/03 - 03:30 AM54.4°52.2°
09/03 - 03:15 AM54.4°52.2°
09/03 - 03:00 AM54.5°52.3°
09/03 - 02:45 AM54.4°51.6°
09/03 - 02:30 AM54.6°51.5°
09/03 - 02:15 AM54.7°51.6°
09/03 - 02:00 AM55.5°52.1°
09/03 - 01:45 AM56.1°52.4°
09/03 - 01:30 AM56.2°52.4°
09/03 - 01:15 AM56.6°52.5°
09/03 - 01:00 AM56.7°52.9°
09/03 - 12:45 AM56.6°52.9°
09/03 - 12:30 AM56.5°52.5°
09/03 - 12:15 AM56.9°52.7°
09/03 - 12:00 AM57.1°52.7°
09/02 - 11:45 PM57.1°52.9°
09/02 - 11:30 PM57.0°53.1°
09/02 - 11:15 PM57.2°53.5°
09/02 - 11:00 PM57.3°53.3°
09/02 - 10:45 PM57.9°53.7°
09/02 - 10:30 PM58.6°54.0°
09/02 - 10:15 PM58.9°53.7°
09/02 - 10:00 PM59.9°54.2°
09/02 - 09:45 PM60.4°54.8°
09/02 - 09:30 PM60.9°55.4°
09/02 - 09:15 PM61.3°55.4°
09/02 - 09:00 PM61.9°55.5°
09/02 - 08:45 PM62.9°56.1°